Jefferson, NC

12:11 AM EST on December 15, 2019 (GMT -0500)
Ashe County

Weather History for KGEV - November, 2019

Change the Weather History Date:

Thursday, November 21, 2019

  Actual Average Record
Temperature  
Mean Temperature 42 °F -  
Max Temperature 54 °F 49 °F 68 °F (2007)
Min Temperature 30 °F 29 °F 12 °F (1984)
Degree Days  
Heating Degree Days 23    
Moisture  
Dew Point 35 °F    
Average Humidity 76    
Maximum Humidity 100    
Minimum Humidity 52    
Precipitation  
Precipitation 0.00 in - - ()
Sea Level Pressure  
Sea Level Pressure 30.19 in    
Wind  
Wind Speed 1 mph ()    
Max Wind Speed 7 mph    
Max Gust Speed -    
Visibility 9.8 miles    
Events      
Averages and records for this station are not official NWS values.
T = Trace of Precipitation, MM = Missing Value Source: Averaged Metar Reports

Daily Weather History Graph

Daily Weather History Graph

Search for Another Location

Airport or City:

Astronomy

Nov. 21, 2019 Rise Set
Actual Time 7:08 AM EST 5:13 PM EST
Civil Twilight 6:41 AM EST 5:41 PM EST
Nautical Twilight 6:09 AM EST 6:13 PM EST
Astronomical Twilight 5:38 AM EST 6:43 PM EST
Moon 1:15 AM EST (11/21) 2:30 PM EST (11/21)
Length of Visible Light 11h 00m
Length of Day
10h 04m
Waning Crescent, 30% of the Moon is Illuminated
Nov 21
Waning Crescent
Nov 26
New
Dec 4
First Quarter
Dec 12
Full
Dec 18
Last Quarter

Hourly Weather History & Observations

Time (EST) Temp. Windchill Dew Point Humidity Pressure Visibility Wind Dir Wind Speed Gust Speed Precip Events Conditions
12:35 AM 37.0 °F - 33.8 °F 88% 30.24 in 10.0 mi Calm Calm - N/A   Clear
12:55 AM 37.4 °F - 33.8 °F 87% 30.24 in 10.0 mi Calm Calm - N/A   Clear
1:15 AM 37.2 °F - 33.6 °F 87% 30.23 in 10.0 mi Calm Calm - N/A   Clear
1:55 AM 33.8 °F - 33.4 °F 99% 30.24 in 10.0 mi Calm Calm - N/A   Clear
2:35 AM 34.3 °F - 33.3 °F 96% 30.24 in 10.0 mi Calm Calm - N/A   Clear
2:55 AM 34.3 °F - 33.1 °F 95% 30.23 in 10.0 mi Calm Calm - N/A   Clear
3:15 AM 33.1 °F - 32.2 °F 96% 30.24 in 10.0 mi Calm Calm - N/A   Clear
3:35 AM 32.7 °F - 32.7 °F 100% 30.23 in 10.0 mi Calm Calm - N/A   Clear
3:55 AM 33.3 °F - 32.7 °F 98% 30.23 in 10.0 mi Calm Calm - N/A   Clear
4:15 AM 32.7 °F - 32.7 °F 100% 30.22 in 10.0 mi Calm Calm - N/A   Clear
4:35 AM 32.0 °F - 32.0 °F 100% 30.23 in 10.0 mi Calm Calm - N/A   Clear
4:55 AM 33.8 °F - 33.1 °F 97% 30.23 in 10.0 mi Calm Calm - N/A   Clear
5:35 AM 34.0 °F - 32.4 °F 94% 30.23 in 10.0 mi Calm Calm - N/A   Clear
6:15 AM 30.0 °F 26.5 °F 30.0 °F 100% 30.23 in 3.0 mi NW 3.5 mph - N/A   Scattered Clouds
6:35 AM 31.8 °F - 31.8 °F 100% 30.25 in 7.0 mi Calm Calm - N/A   Scattered Clouds
6:55 AM 31.8 °F - 31.8 °F 100% 30.25 in 10.0 mi Calm Calm - N/A   Clear
7:15 AM 32.5 °F - 31.8 °F 97% 30.25 in 10.0 mi Calm Calm - N/A   Clear
7:35 AM 32.7 °F - 31.8 °F 96% 30.25 in 10.0 mi Calm Calm - N/A   Clear
7:55 AM 32.7 °F - 31.8 °F 96% 30.25 in 10.0 mi Calm Calm - N/A   Clear
8:15 AM 34.2 °F - 32.0 °F 92% 30.24 in 10.0 mi Calm Calm - N/A   Clear
8:35 AM 34.5 °F - 32.2 °F 91% 30.25 in 10.0 mi Calm Calm - N/A   Clear
9:15 AM 37.8 °F - 34.7 °F 89% 30.25 in 10.0 mi Calm Calm - N/A   Clear
9:35 AM 40.5 °F - 31.6 °F 71% 30.25 in 10.0 mi Calm Calm - N/A   Clear
9:55 AM 41.7 °F - 30.9 °F 66% 30.25 in 10.0 mi Calm Calm - N/A   Clear
10:15 AM 44.8 °F 43.3 °F 34.0 °F 66% 30.24 in 10.0 mi East 3.5 mph - N/A   Clear
10:35 AM 45.0 °F 43.5 °F 32.0 °F 60% 30.24 in 10.0 mi South 3.5 mph - N/A   Clear
10:55 AM 46.6 °F - 32.4 °F 58% 30.23 in 10.0 mi South 3.5 mph - N/A   Clear
11:15 AM 49.1 °F - 34.2 °F 56% 30.22 in 10.0 mi SE 4.6 mph - N/A   Clear
11:35 AM 49.3 °F - 34.9 °F 58% 30.22 in 10.0 mi East 4.6 mph - N/A   Clear
11:55 AM 49.1 °F - 35.2 °F 59% 30.21 in 10.0 mi SSE 3.5 mph - N/A   Clear
12:15 PM 49.8 °F - 35.4 °F 58% 30.20 in 10.0 mi Calm Calm - N/A   Clear
12:35 PM 52.5 °F - 35.8 °F 53% 30.19 in 10.0 mi South 3.5 mph - N/A   Clear
12:55 PM 52.9 °F - 36.5 °F 54% 30.19 in 10.0 mi Calm Calm - N/A   Clear
1:15 PM 54.0 °F - 36.9 °F 52% 30.18 in 10.0 mi SSE 4.6 mph - N/A   Clear
1:55 PM 52.3 °F - 36.7 °F 55% 30.17 in 10.0 mi SE 3.5 mph - N/A   Clear
2:15 PM 52.2 °F - 37.0 °F 56% 30.16 in 10.0 mi SE 4.6 mph - N/A   Clear
2:55 PM 50.4 °F - 36.5 °F 59% 30.16 in 10.0 mi SE 5.8 mph - N/A   Scattered Clouds
3:15 PM 51.3 °F - 37.2 °F 59% 30.17 in 10.0 mi SSE 6.9 mph - N/A   Clear
3:35 PM 50.7 °F - 36.9 °F 59% 30.16 in 10.0 mi SE 3.5 mph - N/A   Scattered Clouds
3:55 PM 50.0 °F - 36.9 °F 61% 30.16 in 10.0 mi SE 3.5 mph - N/A   Scattered Clouds
4:15 PM 48.4 °F - 36.5 °F 64% 30.16 in 10.0 mi SE 4.6 mph - N/A   Mostly Cloudy
4:35 PM 47.8 °F - 36.3 °F 64% 30.16 in 10.0 mi SSE 5.8 mph - N/A   Overcast
4:55 PM 47.5 °F - 36.5 °F 66% 30.17 in 10.0 mi SSE 5.8 mph - N/A   Overcast
5:15 PM 46.4 °F 43.5 °F 36.1 °F 67% 30.16 in 10.0 mi SSE 5.8 mph - N/A   Mostly Cloudy
5:35 PM 45.9 °F 43.6 °F 36.1 °F 69% 30.16 in 10.0 mi SSE 4.6 mph - N/A   Mostly Cloudy
5:55 PM 45.0 °F 43.5 °F 36.1 °F 71% 30.16 in 10.0 mi SE 3.5 mph - N/A   Mostly Cloudy
6:15 PM 44.8 °F - 36.5 °F 73% 30.16 in 10.0 mi Calm Calm - N/A   Mostly Cloudy
6:35 PM 45.7 °F - 36.5 °F 70% 30.16 in 10.0 mi Calm Calm - N/A   Overcast
6:55 PM 45.5 °F - 36.5 °F 71% 30.17 in 10.0 mi Calm Calm - N/A   Overcast
7:15 PM 45.5 °F - 36.5 °F 71% 30.16 in 10.0 mi Calm Calm - N/A   Overcast
7:35 PM 45.0 °F - 36.5 °F 72% 30.16 in 10.0 mi Calm Calm - N/A   Overcast
7:55 PM 44.4 °F - 36.3 °F 73% 30.15 in 10.0 mi Calm Calm - N/A   Mostly Cloudy
8:15 PM 44.6 °F - 36.1 °F 72% 30.15 in 10.0 mi Calm Calm - N/A   Scattered Clouds
8:35 PM 43.9 °F - 36.3 °F 75% 30.15 in 10.0 mi Calm Calm - N/A   Mostly Cloudy
8:55 PM 44.1 °F 42.5 °F 36.3 °F 74% 30.14 in 10.0 mi SSE 3.5 mph - N/A   Scattered Clouds
9:15 PM 43.7 °F - 36.3 °F 75% 30.14 in 10.0 mi Calm Calm - N/A   Clear
9:35 PM 43.3 °F - 36.1 °F 76% 30.14 in 10.0 mi Calm Calm - N/A   Clear
9:55 PM 43.5 °F - 36.3 °F 76% 30.13 in 10.0 mi Calm Calm - N/A   Clear
10:15 PM 43.5 °F - 36.3 °F 76% 30.13 in 10.0 mi Calm Calm - N/A   Clear
10:35 PM 43.2 °F - 36.3 °F 77% 30.12 in 10.0 mi Calm Calm - N/A   Clear
10:55 PM 42.4 °F - 36.1 °F 78% 30.11 in 10.0 mi Calm Calm - N/A   Clear
11:15 PM 43.7 °F - 36.3 °F 75% 30.10 in 10.0 mi Calm Calm - N/A   Clear
11:35 PM 43.3 °F 41.7 °F 36.1 °F 76% 30.10 in 10.0 mi SE 3.5 mph - N/A   Clear
11:55 PM 44.4 °F - 35.8 °F 72% 30.10 in 10.0 mi Calm Calm - N/A   Clear